Regional Weather Roundup
Issued by NWS Jackson, KY

Home | Current Version | Previous Version | Text Only | Print | Product List | Glossary On
Versions: 1 2 3 4 5 6 7 8 9 10 11 12 13 14 15 16 17 18 19 20 21 22 23 24 25 26 27 28 29 30 31 32 33 34 35 36 37 38 39 40 41 42 43 44 45 46 47 48 49 50
000
ASUS43 KJKL 222210
RWRJKL

EAST KENTUCKY HOURLY WEATHER ROUNDUP
NATIONAL WEATHER SERVICE JACKSON KY
600 PM EDT FRI MAY 22 2015

NOTE: "FAIR" INDICATES FEW OR NO CLOUDS BELOW 12,000 FEET WITH
NO SIGNIFICANT WEATHER AND/OR OBSTRUCTIONS TO VISIBILITY.

* THESE REPORTS ARE NOT UNDER NWS QUALITY CONTROL AND MAY NOT
  REPORT WEATHER SUCH AS PRECIPITATION AND FOG.

KYZ079-080-083-085-087-088-110-112-115-119-120-222300
...EASTERN KENTUCKY...

CITY           SKY/WX    TMP DP  RH WIND       PRES   REMARKS
JACKSON        SUNNY     70  41  34 VRB3      30.27R
LONDON         SUNNY     72  37  28 N5        30.26S
SOMERSET*      SUNNY     70  39  32 NE3       30.27S
MONTICELLO*    SUNNY     73  43  34 CALM      30.29S
MIDDLESBORO*   SUNNY     70  41  34 NE6       30.26S
HARLAN APT*    CLEAR     70  36  28 N3        30.27R
BLACK MTN*       N/A     57  41  54 N7          N/A
PIKEVILLE APT* SUNNY     68  45  42 NW6       30.26S
BIG SANDY*     CLEAR     69  45  41 CALM      30.26S
MOREHEAD APT*  CLEAR     70  43  37 VRB7      30.27R
$$

KYZ035-036-041-042-044-050-067-078-099-222300
...CENTRAL KENTUCKY...

CITY           SKY/WX    TMP DP  RH WIND       PRES   REMARKS
MT STERLING*   MOSUNNY   72  43  35 W7        30.26S
FLEMING/MASON* SUNNY     70  46  43 SW12      30.25S
DANVILLE*      MOSUNNY   70  43  37 NW7       30.27S
RICHMOND*      MOSUNNY   70  41  35 W3        30.26R
LEXINGTON      MOSUNNY   73  45  36 W10       30.25S
FRANKFORT      MOSUNNY   73  43  33 SW8       30.23S
$$

KYZ091>093-OHZ055-061-077-WVZ005-015-034-035-042-222300
...SOUTHERN OHIO/WEST VIRGINIA...

CITY           SKY/WX    TMP DP  RH WIND       PRES   REMARKS
COVINGTON      PTSUNNY   73  45  36 W12G17    30.21S
COLUMBUS       PTSUNNY   69  48  47 N3        30.17S
DAYTON         MOSUNNY   74  43  32 NW14      30.20R
WILMINGTON     MOSUNNY   72  43  35 W16       30.19S
HUNTINGTON     MOSUNNY   71  42  35 W6        30.23R
CHARLESTON     MOSUNNY   71  44  37 W9        30.22S
PINEVILLE*     SUNNY     69  43  39 MISG      30.30S
BECKLEY        SUNNY     66  38  35 W9        30.26R
BLUEFIELD      MOSUNNY   64  39  39 N7        30.28S
$$

VAZ002-007-008-TNZ017-027-036-066-071-222300
...SOUTHWEST VIRGINIA/EAST TENNESSEE...

CITY           SKY/WX    TMP DP  RH WIND       PRES   REMARKS
WISE*          SUNNY     66  34  30 CALM      30.30S
JONESVILLE*    CLEAR     72  41  33 NW5       30.28S
ABINGDON*      SUNNY     69  36  30 NW7       30.27S
BRISTOL        MOSUNNY   72  40  31 VRB6      30.25S
KNOXVILLE      MOSUNNY   73  41  31 N6        30.23S
OAK RIDGE      SUNNY     74  41  30 E7        30.25S
CROSSVILLE     SUNNY     70  40  33 VRB3      30.27S
NASHVILLE      MOSUNNY   74  42  31 E3        30.26S
$$

...KEY TO REMARKS...
VSB - VISIBILITY IN MILES
WCI - WIND CHILL INDEX
HX  - HEAT INDEX

$$


USA.gov is the U.S. government's official web portal to all federal, state and local government web resources and services.